Home > Weather > Huntington Beach > Past weeks

Flag for USA Past Weather in Huntington Beach, California, USA — Yesterday and Last 2 Weeks

Now
70 °F

Scattered clouds.


Feels Like: 74 °F
Forecast: 64 / 72 °F
Wind: 12 mph from Southwest

Location: John Wayne Airport-Orange County Airport

Current Time: Jul 1, 2016 at 7:05:32 PM

Latest Report: Jul 1, 2016 at 5:53 PM


Visibility: 10 mi

Pressure: 29.87 "Hg

Humidity: 71%

Dew Point: 60 °F

Location of Huntington BeachLocation

Past Weather in Huntington Beach — Graph

°F

Huntington Beach Temperature Yesterday

Maximum temperature yesterday: 75 °F (at 2:53 PM)
Minimum temperature yesterday: 67 °F (at 4:53 AM)
Average temperature yesterday: 70 °F

High & Low Weather Summary for the Past Weeks

 TemperatureHumidityPressure
High95 °F (Jun 20, 2:53 PM)97% (Jun 22, 3:53 AM)30.03 "Hg (Jun 22, 3:53 AM)
Low62 °F (Jun 17, 4:53 AM)23% (Jun 19, 10:53 AM)29.81 "Hg (Jun 19, 5:53 PM)
Average72 °F69%29.91 "Hg
* Reported Jun 16 5:53 PM — Jul 1 5:53 PM, Huntington Beach, Weather by CustomWeather, © 2016

Note: Actual official high and low records may vary slightly from our data, if they occured in-between our weather recording intervals... More about our weather records

Advertising

Huntington Beach Weather History for the Previous 24 Hours

Scroll right to see more
 ConditionsComfort  
Time TempWeatherWind HumidityBarometerVisibility
5:53 PM
Fri, Jul 1
70 °FScattered clouds.12 mph71%29.87 "Hg10 mi
4:53 PM71 °FScattered clouds.14 mph68%29.88 "Hg10 mi
3:53 PM74 °FScattered clouds.12 mph62%29.89 "Hg10 mi
2:53 PM73 °FScattered clouds.13 mph64%29.90 "Hg10 mi
1:53 PM73 °FScattered clouds.13 mph66%29.92 "Hg10 mi
12:53 PM72 °FBroken clouds.14 mph71%29.93 "Hg10 mi
11:53 AM73 °FPartly sunny.14 mph69%29.93 "Hg9 mi
10:53 AM71 °FPartly sunny.10 mph73%29.92 "Hg9 mi
9:53 AM70 °FMostly cloudy.9 mph76%29.91 "Hg9 mi
8:53 AM70 °FMostly cloudy.6 mph73%29.91 "Hg9 mi
7:53 AM68 °FOvercast.5 mph78%29.91 "Hg7 mi
6:53 AM68 °FOvercast.7 mph78%29.88 "Hg7 mi
5:53 AM68 °FOvercast.No wind78%29.87 "Hg7 mi
4:53 AM68 °FOvercast.No wind78%29.87 "Hg10 mi
3:53 AM68 °FOvercast.7 mph78%29.87 "Hg10 mi
3:04 AM67 °FOvercast.3 mph81%29.87 "Hg10 mi
2:53 AM68 °FOvercast.6 mph78%29.87 "Hg10 mi
1:53 AM67 °FOvercast.6 mph81%29.87 "Hg10 mi
12:53 AM67 °FOvercast.5 mph81%29.88 "Hg10 mi
11:53 PM
Thu, Jun 30
67 °FOvercast.7 mph81%29.88 "Hg10 mi
10:53 PM67 °FFog.7 mph81%29.88 "Hg6 mi
9:53 PM67 °FMostly cloudy.10 mph81%29.88 "Hg8 mi
8:53 PM67 °FPassing clouds.9 mph81%29.85 "Hg9 mi
7:53 PM68 °FPassing clouds.12 mph78%29.83 "Hg10 mi
Weather by CustomWeather, © 2016

See weather overviewHow to use our weather pages